Wind_Speed
10 10 10 10 10 11 12 13 14 15 15 15 16 16 16 16 16 16 16 16 16 16 16 17 17 18 18 17 17 17 18 17 17 16 16 16 15 15 15 15 14 14 14
10 11 11 10 11 11 12 13 14 15 15 16 16 16 16 16 17 17 17 16 16 17 17 17 17 18 17 17 17 18 18 18 18 17 17 17 17 15 15 15 15 14 14
11 11 11 12 12 13 13 14 14 15 16 16 17 17 17 17 16 16 16 16 16 17 17 17 18 18 18 17 17 18 19 19 19 19 18 18 18 17 17 16 16 15 15
12 12 12 13 13 14 14 14 15 16 17 17 17 17 17 17 17 16 16 17 17 17 17 18 18 18 18 18 18 18 18 19 19 19 18 18 18 18 17 17 17 16 16
14 14 14 14 14 15 15 15 16 16 17 17 17 17 17 17 16 17 17 17 17 17 17 17 17 17 17 17 18 18 18 18 18 18 18 17 18 18 18 17 18 17 17
15 15 15 15 15 15 16 16 17 17 17 17 17 17 17 17 17 17 17 17 17 17 17 17 17 16 16 16 17 17 17 17 17 17 17 17 17 18 19 18 19 19 18
16 16 16 16 16 16 16 16 17 17 17 17 17 17 17 18 17 17 17 17 17 16 17 17 17 17 17 17 17 17 17 17 17 17 17 18 18 18 19 19 19 19 19
17 17 17 17 17 17 17 17 17 17 17 16 17 17 17 17 18 18 17 17 17 17 17 18 17 17 18 18 17 17 17 18 18 18 17 17 18 19 20 20 19 19 19
17 18 18 18 18 18 17 17 17 17 17 17 17 17 17 18 18 18 18 18 17 17 18 18 18 18 18 19 18 18 18 18 18 18 18 18 18 18 19 19 18 19 19
18 18 18 18 18 18 18 18 17 17 17 17 18 18 18 18 19 18 18 17 17 18 18 19 19 20 19 18 18 18 18 18 18 17 17 17 17 17 18 18 18 19 19
19 19 19 19 19 19 19 18 18 17 17 18 18 18 18 18 18 18 18 18 18 18 18 18 19 20 20 19 19 19 19 18 18 18 18 17 18 18 18 18 19 19 19
20 20 19 19 20 19 19 18 18 18 18 18 18 18 18 18 18 18 19 19 19 19 19 19 19 19 20 19 19 19 20 20 19 19 19 19 18 18 18 18 19 19 20
21 21 20 20 20 20 20 19 19 18 18 18 18 18 18 19 19 19 19 19 20 20 20 20 20 20 20 20 20 21 21 20 20 20 20 20 20 20 20 20 20 20 21
22 22 21 22 21 21 20 19 19 19 19 20 19 19 19 19 19 19 19 20 20 20 21 21 20 20 20 20 20 21 21 22 21 22 22 22 21 21 22 21 22 22 22
22 22 23 23 22 22 21 21 20 20 20 20 21 20 20 20 20 20 20 20 21 21 20 21 21 21 22 22 21 22 22 22 22 22 22 22 23 23 23 23 23 23 23
23 23 23 23 23 22 23 22 22 21 21 21 21 21 21 21 21 21 22 22 22 22 21 22 22 22 22 22 22 22 23 23 23 23 23 23 23 23 24 23 23 23 23
24 24 24 24 24 24 24 24 23 23 22 22 22 22 22 22 22 22 23 23 23 23 22 22 22 22 23 23 23 23 23 23 23 24 24 24 24 24 24 23 23 23 23
23 24 25 25 25 25 24 25 24 24 24 24 24 24 24 24 24 24 24 23 24 24 23 23 23 24 24 24 24 25 25 25 25 25 25 25 25 25 25 25 24 24 24
24 24 25 25 25 25 26 25 25 25 26 26 25 25 25 25 25 25 25 25 25 24 24 24 24 24 24 25 25 26 26 26 26 26 26 26 26 26 26 26 26 26 26
24 24 25 25 25 25 25 26 27 27 27 27 27 27 27 27 27 27 27 27 26 26 26 26 25 25 25 26 26 26 27 27 27 26 26 27 27 27 27 28 28 28 27
26 26 26 27 27 27 27 27 28 28 28 28 29 29 29 28 28 28 28 28 27 27 26 26 26 26 26 27 27 27 27 27 28 27 27 27 27 27 28 28 28 28 28
28 27 27 28 28 28 28 28 28 29 30 30 30 30 29 29 29 28 28 28 28 27 27 27 27 27 27 27 27 27 27 28 28 28 27 27 27 27 27 28 28 28 28
29 29 29 29 29 29 29 29 29 30 30 31 30 30 30 29 28 28 28 29 28 27 27 28 28 28 28 28 27 27 28 28 28 28 28 27 27 27 27 28 28 28 28
31 31 31 30 30 30 30 29 30 30 30 31 31 31 31 30 30 28 28 28 28 28 28 28 28 28 28 28 28 28 28 28 28 28 28 28 28 27 27 27 28 28 28
32 32 33 33 32 32 31 31 31 31 30 30 31 31 31 31 31 30 29 29 29 29 29 30 29 29 28 29 29 29 29 29 29 29 29 28 28 28 28 28 28 28 29
32 33 33 34 34 34 33 33 32 32 31 31 32 31 32 32 32 31 31 30 29 30 31 31 30 30 29 29 29 29 30 30 30 30 30 29 29 29 28 29 29 29 29
Wind_Direction
262 260 266 270 270 271 272 273 272 271 271 270 270 270 269 269 270 268 269 269 269 269 269 269 271 270 270 267 267 266 265 266 267 268 267 266 264 262 263 263 264 262 262
265 266 269 270 272 274 275 275 275 275 274 273 272 270 269 270 271 270 268 267 267 268 269 270 271 270 269 268 267 266 266 267 267 268 267 265 263 263 264 262 261 261 263
266 268 269 271 275 277 277 276 275 275 276 276 275 273 271 271 270 270 270 270 270 270 271 272 272 271 269 268 268 267 267 267 267 267 266 263 262 263 262 262 258 259 261
266 268 270 273 278 280 279 278 277 276 275 275 274 274 274 271 270 270 271 271 271 271 272 273 272 271 269 269 269 269 267 266 266 265 264 262 262 259 258 258 259 259 259
268 271 271 274 278 280 280 280 281 279 276 274 273 273 273 272 270 270 269 270 271 271 272 272 273 273 272 272 270 269 267 265 264 263 262 261 260 257 256 256 257 257 256
269 271 272 275 277 279 281 280 282 281 277 274 272 272 272 273 272 270 269 270 270 270 271 271 273 275 274 274 272 269 267 266 265 263 260 259 260 258 256 255 256 256 255
270 270 273 274 276 279 281 281 281 281 278 276 273 271 272 274 274 272 269 268 269 270 271 272 274 276 275 274 274 273 271 268 267 265 263 261 260 258 257 256 254 255 255
273 272 273 274 277 279 281 281 282 281 280 278 274 273 273 274 274 273 271 268 268 270 271 271 273 274 274 274 273 272 271 269 268 265 265 263 260 259 256 253 254 256 256
274 273 274 274 276 279 280 280 281 281 279 278 275 274 274 275 275 273 272 270 268 268 270 271 271 271 269 270 271 271 271 271 269 265 263 263 262 260 256 254 255 258 258
273 273 273 274 275 277 278 278 279 279 279 278 276 274 275 276 275 273 272 272 270 268 270 271 270 270 271 270 271 270 270 269 266 263 263 263 262 262 261 257 256 257 258
275 275 275 274 275 276 277 276 276 277 279 278 276 275 275 275 274 273 272 272 271 269 269 270 270 270 270 271 271 269 268 266 265 264 265 265 264 264 262 258 257 258 258
277 276 275 274 276 277 277 276 277 277 278 277 276 275 274 274 275 273 273 271 271 270 270 270 270 270 269 268 268 267 265 264 264 264 263 262 261 263 262 259 257 258 259
276 276 274 274 275 275 275 276 277 276 275 276 276 275 274 274 274 274 274 273 272 272 272 271 270 270 270 269 268 266 265 263 262 262 261 261 260 261 261 260 259 259 260
275 275 274 273 273 273 274 275 276 275 275 275 275 276 274 273 273 274 274 273 272 273 273 272 271 269 269 269 269 267 265 263 261 261 260 260 260 260 260 261 261 261 261
276 276 274 272 270 271 272 273 273 273 274 274 274 276 276 274 273 273 273 273 272 272 272 271 272 270 269 269 269 269 267 265 264 262 261 260 260 260 260 262 263 263 262
277 276 273 272 271 271 272 272 272 273 272 273 273 274 274 274 274 274 273 273 273 272 272 272 272 271 271 271 271 270 268 266 265 263 262 261 260 261 262 263 264 262 262
279 277 274 273 271 270 270 270 271 271 272 273 273 273 274 274 272 273 273 273 273 275 274 273 273 272 272 272 271 270 268 266 265 264 264 263 261 261 262 263 262 261 261
279 278 277 274 272 270 270 271 270 270 271 272 274 274 274 274 272 272 274 274 274 274 273 274 274 273 272 272 272 270 268 267 266 266 265 264 262 262 262 264 262 262 261
281 278 277 276 273 272 271 270 269 269 270 271 272 274 274 273 272 272 272 273 274 274 273 274 275 274 273 272 271 270 269 268 268 266 266 265 263 262 263 263 262 261 261
282 279 276 276 276 274 273 272 270 271 271 270 270 271 272 272 272 271 272 273 272 272 272 273 274 274 273 273 272 271 270 270 269 266 266 266 264 262 262 261 261 260 260
281 279 277 276 276 276 274 272 271 271 271 271 271 270 269 270 270 270 271 272 272 271 271 273 275 274 273 273 272 272 271 270 269 267 266 265 264 263 262 261 260 259 259
280 280 279 278 278 277 276 274 272 271 271 271 271 270 269 269 270 269 270 270 271 272 272 272 273 273 272 272 272 272 271 270 269 268 267 265 264 264 263 262 261 260 259
280 279 279 278 278 278 275 275 274 272 272 271 270 270 269 269 268 268 268 268 270 270 272 273 274 273 272 271 272 272 271 270 270 269 267 266 265 265 264 261 261 261 260
279 278 278 278 279 278 276 276 275 273 271 270 269 269 269 267 268 267 267 268 269 271 272 272 273 272 271 271 272 272 271 271 271 268 267 267 267 267 266 264 262 261 260
279 279 278 277 277 278 277 277 276 274 272 270 268 268 268 268 266 266 267 268 269 270 271 272 272 271 270 270 271 271 271 271 271 269 267 266 266 266 265 265 263 262 261
280 279 279 278 276 276 276 276 277 274 272 270 269 267 266 265 266 264 266 267 268 269 269 270 271 271 271 271 270 270 270 270 269 267 265 265 265 266 265 264 262 262 263
Height
5858 5857 5857 5856 5856 5856 5855 5855 5855 5854 5854 5854 5853 5853 5853 5852 5852 5852 5851 5851 5851 5850 5850 5850 5849 5849 5848 5848 5848 5848 5848 5848 5849 5849 5849 5849 5849 5848 5849 5849 5849 5850 5850
5855 5855 5855 5854 5854 5853 5853 5852 5852 5851 5850 5850 5850 5849 5849 5849 5848 5848 5848 5847 5847 5847 5846 5846 5846 5845 5844 5844 5844 5844 5844 5844 5845 5845 5845 5845 5845 5845 5845 5846 5846 5846 5847
5853 5852 5852 5852 5851 5850 5850 5849 5848 5848 5847 5847 5846 5845 5845 5845 5844 5844 5844 5844 5843 5843 5843 5842 5842 5841 5841 5840 5840 5840 5840 5840 5840 5840 5841 5841 5841 5841 5842 5842 5843 5843 5844
5850 5850 5849 5849 5848 5847 5846 5846 5845 5844 5843 5843 5842 5841 5841 5841 5841 5840 5840 5840 5839 5839 5839 5838 5838 5837 5837 5836 5836 5836 5835 5835 5835 5836 5836 5836 5837 5837 5837 5838 5839 5839 5840
5847 5846 5846 5845 5844 5844 5843 5842 5841 5840 5839 5838 5838 5837 5837 5837 5836 5836 5836 5836 5835 5835 5835 5834 5834 5833 5833 5832 5832 5832 5831 5831 5831 5831 5831 5832 5832 5832 5833 5834 5834 5835 5836
5843 5843 5842 5841 5841 5840 5839 5838 5837 5836 5835 5834 5834 5833 5833 5832 5832 5832 5832 5832 5831 5831 5831 5831 5830 5830 5829 5828 5828 5827 5827 5827 5826 5827 5827 5827 5827 5828 5829 5829 5830 5831 5832
5839 5839 5838 5837 5837 5836 5835 5834 5833 5831 5830 5829 5829 5829 5828 5828 5827 5827 5827 5827 5827 5827 5827 5826 5826 5825 5825 5824 5824 5823 5822 5822 5822 5822 5822 5822 5823 5823 5824 5825 5825 5826 5827
5835 5834 5834 5833 5832 5832 5830 5829 5828 5827 5826 5825 5825 5824 5824 5824 5823 5823 5823 5823 5823 5823 5822 5822 5822 5821 5820 5820 5819 5819 5818 5818 5818 5818 5818 5818 5818 5818 5819 5820 5821 5822 5823
5830 5830 5829 5828 5828 5827 5826 5825 5824 5822 5821 5821 5820 5820 5820 5819 5819 5818 5818 5818 5818 5818 5818 5818 5817 5816 5816 5815 5815 5814 5814 5813 5813 5813 5813 5813 5813 5814 5814 5815 5816 5817 5818
5825 5825 5824 5823 5823 5822 5821 5820 5819 5818 5817 5816 5816 5815 5815 5814 5814 5814 5814 5813 5813 5813 5813 5813 5812 5812 5811 5810 5810 5809 5809 5809 5809 5809 5809 5809 5809 5809 5810 5811 5812 5813 5814
5821 5820 5819 5818 5818 5817 5816 5815 5814 5813 5813 5812 5811 5810 5810 5809 5809 5809 5809 5808 5808 5808 5808 5807 5807 5807 5806 5806 5805 5805 5805 5805 5805 5805 5805 5805 5805 5805 5806 5806 5807 5808 5809
5816 5815 5814 5813 5812 5812 5811 5810 5809 5808 5807 5807 5806 5805 5805 5805 5804 5804 5804 5803 5803 5803 5802 5802 5802 5801 5801 5800 5800 5800 5800 5800 5800 5800 5800 5801 5801 5801 5801 5802 5802 5803 5804
5810 5809 5809 5808 5807 5806 5806 5805 5804 5803 5802 5802 5801 5800 5800 5800 5799 5799 5799 5798 5797 5797 5797 5797 5796 5796 5795 5795 5795 5795 5795 5795 5795 5795 5796 5796 5796 5796 5797 5797 5797 5798 5798
5805 5804 5803 5802 5801 5801 5800 5799 5799 5798 5797 5797 5796 5795 5795 5794 5794 5794 5793 5793 5792 5792 5791 5791 5790 5790 5790 5790 5790 5790 5789 5790 5790 5790 5790 5790 5791 5791 5791 5792 5792 5792 5793
5799 5798 5797 5796 5795 5795 5794 5794 5793 5792 5792 5791 5791 5790 5789 5789 5788 5788 5787 5787 5787 5786 5786 5785 5785 5784 5784 5784 5784 5784 5784 5784 5784 5784 5784 5784 5785 5785 5785 5786 5786 5787 5787
5792 5791 5790 5789 5789 5788 5788 5787 5787 5786 5786 5785 5785 5784 5784 5783 5783 5782 5781 5781 5780 5780 5780 5779 5779 5779 5778 5778 5778 5778 5778 5778 5778 5778 5778 5778 5778 5779 5779 5779 5780 5780 5781
5785 5784 5783 5782 5782 5781 5781 5781 5780 5780 5779 5779 5778 5778 5777 5777 5777 5776 5776 5775 5774 5774 5774 5773 5773 5772 5772 5772 5772 5772 5771 5771 5771 5771 5771 5772 5772 5772 5772 5772 5773 5773 5774
5778 5777 5776 5775 5775 5774 5774 5774 5773 5773 5773 5772 5772 5771 5771 5771 5770 5770 5769 5769 5768 5767 5767 5767 5766 5766 5765 5765 5765 5765 5765 5765 5764 5764 5764 5764 5765 5764 5764 5765 5766 5766 5767
5771 5769 5768 5768 5767 5767 5767 5766 5766 5765 5765 5765 5765 5764 5764 5764 5763 5763 5763 5762 5761 5761 5760 5760 5759 5759 5758 5758 5758 5757 5757 5757 5756 5756 5756 5756 5757 5757 5757 5758 5758 5759 5760
5764 5762 5761 5760 5760 5759 5759 5758 5758 5757 5757 5757 5757 5757 5757 5756 5756 5756 5755 5755 5754 5753 5753 5753 5752 5752 5751 5751 5750 5750 5750 5749 5749 5748 5748 5748 5748 5749 5749 5749 5750 5751 5751
5756 5755 5754 5753 5752 5751 5751 5750 5750 5749 5749 5749 5749 5748 5748 5748 5748 5748 5747 5747 5746 5746 5745 5745 5744 5744 5744 5743 5743 5742 5742 5741 5741 5740 5740 5740 5740 5740 5741 5741 5742 5742 5743
5748 5747 5746 5745 5744 5743 5743 5742 5741 5741 5740 5740 5740 5740 5740 5740 5739 5739 5739 5739 5738 5738 5738 5737 5736 5736 5736 5735 5735 5734 5733 5733 5733 5733 5732 5732 5732 5732 5732 5733 5733 5734 5735
5740 5739 5737 5737 5736 5735 5734 5734 5732 5732 5731 5731 5731 5731 5731 5731 5731 5731 5730 5730 5730 5729 5729 5729 5728 5728 5727 5727 5726 5726 5725 5724 5724 5724 5723 5723 5724 5724 5724 5725 5725 5726 5726
5731 5730 5729 5728 5727 5726 5725 5724 5723 5722 5722 5721 5721 5721 5722 5722 5722 5722 5722 5722 5721 5721 5720 5720 5720 5719 5718 5718 5717 5717 5716 5716 5715 5715 5715 5715 5715 5716 5716 5716 5717 5717 5718
5722 5720 5719 5718 5717 5716 5715 5715 5713 5712 5712 5712 5712 5711 5712 5712 5712 5712 5712 5712 5712 5712 5711 5711 5710 5710 5709 5709 5708 5708 5708 5707 5707 5707 5707 5707 5707 5707 5708 5708 5708 5709 5710
5712 5710 5709 5708 5707 5706 5705 5705 5703 5702 5702 5702 5702 5702 5702 5702 5702 5702 5703 5703 5703 5702 5702 5701 5701 5700 5700 5699 5699 5699 5699 5698 5698 5698 5698 5698 5698 5699 5699 5700 5700 5701 5701